Powrót do katalogu

THORAD DELTA 1 DEB

AktywnySSO
NORAD 14475·DEBRIS·🇺🇸 United States

Wystrzelony Nov 15, 1974 z Vandenberg Space Force Base

Loading…

Następne Przeloty (najbliższe 24 godziny)

TLE

ŚwieżeSource: Space-Track

Epoka: Sep 14, 2026, 08:46 UTC

1 14475U 74089ER  26257.36534878  .00000253  00000-0  16441-2 0  9993
2 14475 101.0838  45.1891 0125024   7.3345  20.9720 12.60280676993243

Śledź THORAD DELTA 1 DEB w czasie rzeczywistym z AllMySat

Download on the App Store